Year,Month,Day,Hour,Minute,Value (Times are PST for temperature in C)
2007,08,24,00,00,14.60
2007,08,24,00,01,14.50
2007,08,24,00,02,14.50
2007,08,24,00,03,14.50
2007,08,24,00,04,14.50
2007,08,24,00,05,14.50
2007,08,24,00,06,14.50
2007,08,24,00,07,14.50
2007,08,24,00,08,14.50
2007,08,24,00,09,14.40
2007,08,24,00,10,14.40
2007,08,24,00,11,14.40
2007,08,24,00,12,14.40
2007,08,24,00,13,14.40
2007,08,24,00,14,14.40
2007,08,24,00,15,14.30
2007,08,24,00,16,14.30
2007,08,24,00,17,14.30
2007,08,24,00,18,14.30
2007,08,24,00,19,14.30
2007,08,24,00,20,14.30
2007,08,24,00,21,14.30
2007,08,24,00,22,14.30
2007,08,24,00,23,14.30
2007,08,24,00,24,14.30
2007,08,24,00,25,14.30
2007,08,24,00,26,14.20
2007,08,24,00,27,14.20
2007,08,24,00,28,14.20
2007,08,24,00,29,14.20
2007,08,24,00,30,14.20
2007,08,24,00,31,14.20
2007,08,24,00,32,14.20
2007,08,24,00,33,14.20
2007,08,24,00,34,14.20
2007,08,24,00,35,14.20
2007,08,24,00,36,14.20
2007,08,24,00,37,14.20
2007,08,24,00,38,14.10
2007,08,24,00,39,14.10
2007,08,24,00,40,14.10
2007,08,24,00,41,14.10
2007,08,24,00,42,14.10
2007,08,24,00,43,14.10
2007,08,24,00,44,14.10
2007,08,24,00,45,14.10
2007,08,24,00,46,14.00
2007,08,24,00,47,14.00
2007,08,24,00,48,14.00
2007,08,24,00,49,14.00
2007,08,24,00,50,14.00
2007,08,24,00,51,13.90
2007,08,24,00,52,13.90
2007,08,24,00,53,13.90
2007,08,24,00,54,13.90
2007,08,24,00,55,13.80
2007,08,24,00,56,13.80
2007,08,24,00,57,13.80
2007,08,24,00,58,13.80
2007,08,24,00,59,13.80
2007,08,24,01,00,13.80
2007,08,24,01,01,13.90
2007,08,24,01,02,13.90
2007,08,24,01,03,13.90
2007,08,24,01,04,13.90
2007,08,24,01,05,13.90
2007,08,24,01,06,13.90
2007,08,24,01,07,13.90
2007,08,24,01,08,13.90
2007,08,24,01,09,13.90
2007,08,24,01,10,13.90
2007,08,24,01,11,13.90
2007,08,24,01,12,13.90
2007,08,24,01,13,13.90
2007,08,24,01,14,13.90
2007,08,24,01,15,13.90
2007,08,24,01,16,13.90
2007,08,24,01,17,13.90
2007,08,24,01,18,13.90
2007,08,24,01,19,13.90
2007,08,24,01,20,13.90
2007,08,24,01,21,13.80
2007,08,24,01,22,13.80
2007,08,24,01,23,13.80
2007,08,24,01,24,13.80
2007,08,24,01,25,13.80
2007,08,24,01,26,13.80
2007,08,24,01,27,13.80
2007,08,24,01,28,13.80
2007,08,24,01,29,13.80
2007,08,24,01,30,13.70
2007,08,24,01,31,13.70
2007,08,24,01,32,13.70
2007,08,24,01,33,13.70
2007,08,24,01,34,13.70
2007,08,24,01,35,13.70
2007,08,24,01,36,13.70
2007,08,24,01,37,13.70
2007,08,24,01,38,13.70
2007,08,24,01,39,13.70
2007,08,24,01,40,13.70
2007,08,24,01,41,13.70
2007,08,24,01,42,13.70
2007,08,24,01,43,13.70
2007,08,24,01,44,13.70
2007,08,24,01,45,13.70
2007,08,24,01,46,13.70
2007,08,24,01,47,13.70
2007,08,24,01,48,13.70
2007,08,24,01,49,13.70
2007,08,24,01,50,13.70
2007,08,24,01,51,13.70
2007,08,24,01,52,13.70
2007,08,24,01,53,13.70
2007,08,24,01,54,13.70
2007,08,24,01,55,13.60
2007,08,24,01,56,13.60
2007,08,24,01,57,13.60
2007,08,24,01,58,13.60
2007,08,24,01,59,13.60
2007,08,24,02,00,13.60
2007,08,24,02,01,13.60
2007,08,24,02,02,13.60
2007,08,24,02,03,13.60
2007,08,24,02,04,13.60
2007,08,24,02,05,13.60
2007,08,24,02,06,13.60
2007,08,24,02,07,13.60
2007,08,24,02,08,13.50
2007,08,24,02,09,13.50
2007,08,24,02,10,13.50
2007,08,24,02,11,13.50
2007,08,24,02,12,13.50
2007,08,24,02,13,13.50
2007,08,24,02,14,13.50
2007,08,24,02,15,13.50
2007,08,24,02,16,13.50
2007,08,24,02,17,13.40
2007,08,24,02,18,13.40
2007,08,24,02,19,13.40
2007,08,24,02,20,13.40
2007,08,24,02,21,13.40
2007,08,24,02,22,13.40
2007,08,24,02,23,13.40
2007,08,24,02,24,13.40
2007,08,24,02,25,13.40
2007,08,24,02,26,13.30
2007,08,24,02,27,13.30
2007,08,24,02,28,13.30
2007,08,24,02,29,13.30
2007,08,24,02,30,13.30
2007,08,24,02,31,13.30
2007,08,24,02,32,13.30
2007,08,24,02,33,13.30
2007,08,24,02,34,13.30
2007,08,24,02,35,13.30
2007,08,24,02,36,13.30
2007,08,24,02,37,13.30
2007,08,24,02,38,13.30
2007,08,24,02,39,13.30
2007,08,24,02,40,13.20
2007,08,24,02,41,13.20
2007,08,24,02,42,13.20
2007,08,24,02,43,13.20
2007,08,24,02,44,13.20
2007,08,24,02,45,13.20
2007,08,24,02,46,13.20
2007,08,24,02,47,13.20
2007,08,24,02,48,13.20
2007,08,24,02,49,13.20
2007,08,24,02,50,13.10
2007,08,24,02,51,13.10
2007,08,24,02,52,13.10
2007,08,24,02,53,13.20
2007,08,24,02,54,13.20
2007,08,24,02,55,13.20
2007,08,24,02,56,13.20
2007,08,24,02,57,13.10
2007,08,24,02,58,13.10
2007,08,24,02,59,13.10
2007,08,24,03,00,13.10
2007,08,24,03,01,13.10
2007,08,24,03,02,13.10
2007,08,24,03,03,13.10
2007,08,24,03,04,13.10
2007,08,24,03,05,13.10
2007,08,24,03,06,13.10
2007,08,24,03,07,13.10
2007,08,24,03,08,13.10
2007,08,24,03,09,13.10
2007,08,24,03,10,13.10
2007,08,24,03,11,13.10
2007,08,24,03,12,13.10
2007,08,24,03,13,13.00
2007,08,24,03,14,13.00
2007,08,24,03,15,13.00
2007,08,24,03,16,13.00
2007,08,24,03,17,13.00
2007,08,24,03,18,13.00
2007,08,24,03,19,13.00
2007,08,24,03,20,13.00
2007,08,24,03,21,12.90
2007,08,24,03,22,12.90
2007,08,24,03,23,12.90
2007,08,24,03,24,12.90
2007,08,24,03,25,13.00
2007,08,24,03,26,13.00
2007,08,24,03,27,13.00
2007,08,24,03,28,13.00
2007,08,24,03,29,13.00
2007,08,24,03,30,13.00
2007,08,24,03,31,13.00
2007,08,24,03,32,13.00
2007,08,24,03,33,13.00
2007,08,24,03,34,13.00
2007,08,24,03,35,13.00
2007,08,24,03,36,13.00
2007,08,24,03,37,12.90
2007,08,24,03,38,12.90
2007,08,24,03,39,12.90
2007,08,24,03,40,12.90
2007,08,24,03,41,12.90
2007,08,24,03,42,12.90
2007,08,24,03,43,12.90
2007,08,24,03,44,12.90
2007,08,24,03,45,12.90
2007,08,24,03,46,12.80
2007,08,24,03,47,12.80
2007,08,24,03,48,12.80
2007,08,24,03,49,12.80
2007,08,24,03,50,12.80
2007,08,24,03,51,12.80
2007,08,24,03,52,12.80
2007,08,24,03,53,12.80
2007,08,24,03,54,12.80
2007,08,24,03,55,12.80
2007,08,24,03,56,12.80
2007,08,24,03,57,12.80
2007,08,24,03,58,12.80
2007,08,24,03,59,12.80
2007,08,24,04,00,12.80
2007,08,24,04,01,12.80
2007,08,24,04,02,12.80
2007,08,24,04,03,12.80
2007,08,24,04,04,12.80
2007,08,24,04,05,12.80
2007,08,24,04,06,12.80
2007,08,24,04,07,12.80
2007,08,24,04,08,12.80
2007,08,24,04,09,12.80
2007,08,24,04,10,12.80
2007,08,24,04,11,12.80
2007,08,24,04,12,12.70
2007,08,24,04,13,12.70
2007,08,24,04,14,12.70
2007,08,24,04,15,12.70
2007,08,24,04,16,12.70
2007,08,24,04,17,12.70
2007,08,24,04,18,12.60
2007,08,24,04,19,12.60
2007,08,24,04,20,12.60
2007,08,24,04,21,12.60
2007,08,24,04,22,12.60
2007,08,24,04,23,12.60
2007,08,24,04,24,12.50
2007,08,24,04,25,12.50
2007,08,24,04,26,12.50
2007,08,24,04,27,12.50
2007,08,24,04,28,12.50
2007,08,24,04,29,12.50
2007,08,24,04,30,12.50
2007,08,24,04,31,12.50
2007,08,24,04,32,12.50
2007,08,24,04,33,12.50
2007,08,24,04,34,12.40
2007,08,24,04,35,12.40
2007,08,24,04,36,12.40
2007,08,24,04,37,12.40
2007,08,24,04,38,12.40
2007,08,24,04,39,12.40
2007,08,24,04,40,12.40
2007,08,24,04,41,12.40
2007,08,24,04,42,12.40
2007,08,24,04,43,12.40
2007,08,24,04,44,12.30
2007,08,24,04,45,12.30
2007,08,24,04,46,12.30
2007,08,24,04,47,12.30
2007,08,24,04,48,12.30
2007,08,24,04,49,12.30
2007,08,24,04,50,12.30
2007,08,24,04,51,12.30
2007,08,24,04,52,12.30
2007,08,24,04,53,12.30
2007,08,24,04,54,12.30
2007,08,24,04,55,12.30
2007,08,24,04,56,12.30
2007,08,24,04,57,12.30
2007,08,24,04,58,12.30
2007,08,24,04,59,12.30
2007,08,24,05,00,12.30
2007,08,24,05,01,12.30
2007,08,24,05,02,12.30
2007,08,24,05,03,12.20
2007,08,24,05,04,12.20
2007,08,24,05,05,12.20
2007,08,24,05,06,12.20
2007,08,24,05,07,12.20
2007,08,24,05,08,12.20
2007,08,24,05,09,12.20
2007,08,24,05,10,12.20
2007,08,24,05,11,12.20
2007,08,24,05,12,12.10
2007,08,24,05,13,12.10
2007,08,24,05,14,12.10
2007,08,24,05,15,12.10
2007,08,24,05,16,12.10
2007,08,24,05,17,12.10
2007,08,24,05,18,12.10
2007,08,24,05,19,12.10
2007,08,24,05,20,12.10
2007,08,24,05,21,12.10
2007,08,24,05,22,12.10
2007,08,24,05,23,12.00
2007,08,24,05,24,12.00
2007,08,24,05,25,12.00
2007,08,24,05,26,12.00
2007,08,24,05,27,12.00
2007,08,24,05,28,12.00
2007,08,24,05,29,12.00
2007,08,24,05,30,12.00
2007,08,24,05,31,12.00
2007,08,24,05,32,12.00
2007,08,24,05,33,12.00
2007,08,24,05,34,12.00
2007,08,24,05,35,12.00
2007,08,24,05,36,12.00
2007,08,24,05,37,12.00
2007,08,24,05,38,12.00
2007,08,24,05,39,12.00
2007,08,24,05,40,12.00
2007,08,24,05,41,12.00
2007,08,24,05,42,12.00
2007,08,24,05,43,12.00
2007,08,24,05,44,12.00
2007,08,24,05,45,11.90
2007,08,24,05,46,11.90
2007,08,24,05,47,11.90
2007,08,24,05,48,11.90
2007,08,24,05,49,11.90
2007,08,24,05,50,11.90
2007,08,24,05,51,11.90
2007,08,24,05,52,11.80
2007,08,24,05,53,11.80
2007,08,24,05,54,11.80
2007,08,24,05,55,11.80
2007,08,24,05,56,11.80
2007,08,24,05,57,11.80
2007,08,24,05,58,11.80
2007,08,24,05,59,11.80
2007,08,24,06,00,11.80
2007,08,24,06,01,11.80
2007,08,24,06,02,11.80
2007,08,24,06,03,11.80
2007,08,24,06,04,11.80
2007,08,24,06,05,11.80
2007,08,24,06,06,11.80
2007,08,24,06,07,11.80
2007,08,24,06,08,11.80
2007,08,24,06,09,11.80
2007,08,24,06,10,11.80
2007,08,24,06,11,11.80
2007,08,24,06,12,11.80
2007,08,24,06,13,11.80
2007,08,24,06,14,11.80
2007,08,24,06,15,11.80
2007,08,24,06,16,11.80
2007,08,24,06,17,11.80
2007,08,24,06,18,11.80
2007,08,24,06,19,11.80
2007,08,24,06,20,11.80
2007,08,24,06,21,11.80
2007,08,24,06,22,11.80
2007,08,24,06,23,11.80
2007,08,24,06,24,11.80
2007,08,24,06,25,11.80
2007,08,24,06,26,11.70
2007,08,24,06,27,11.80
2007,08,24,06,28,11.80
2007,08,24,06,29,11.80
2007,08,24,06,30,11.80
2007,08,24,06,31,11.80
2007,08,24,06,32,11.80
2007,08,24,06,33,11.80
2007,08,24,06,34,11.80
2007,08,24,06,35,11.80
2007,08,24,06,36,11.80
2007,08,24,06,37,11.80
2007,08,24,06,38,11.70
2007,08,24,06,39,11.70
2007,08,24,06,40,11.70
2007,08,24,06,41,11.70
2007,08,24,06,42,11.70
2007,08,24,06,43,11.70
2007,08,24,06,44,11.70
2007,08,24,06,45,11.70
2007,08,24,06,46,11.70
2007,08,24,06,47,11.70
2007,08,24,06,48,11.60
2007,08,24,06,49,11.60
2007,08,24,06,50,11.60
2007,08,24,06,51,11.60
2007,08,24,06,52,11.60
2007,08,24,06,53,11.60
2007,08,24,06,54,11.60
2007,08,24,06,55,11.60
2007,08,24,06,56,11.60
2007,08,24,06,57,11.60
2007,08,24,06,58,11.60
2007,08,24,06,59,11.60
2007,08,24,07,00,11.60
2007,08,24,07,01,11.60
2007,08,24,07,02,11.60
2007,08,24,07,03,11.60
2007,08,24,07,04,11.60
2007,08,24,07,05,11.60
2007,08,24,07,06,11.60
2007,08,24,07,07,11.60
2007,08,24,07,08,11.60
2007,08,24,07,09,11.60
2007,08,24,07,10,11.60
2007,08,24,07,11,11.60
2007,08,24,07,12,11.70
2007,08,24,07,13,11.70
2007,08,24,07,14,11.70
2007,08,24,07,15,11.70
2007,08,24,07,16,11.70
2007,08,24,07,17,11.70
2007,08,24,07,18,11.70
2007,08,24,07,19,11.70
2007,08,24,07,20,11.70
2007,08,24,07,21,11.70
2007,08,24,07,22,11.70
2007,08,24,07,23,11.70
2007,08,24,07,24,11.70
2007,08,24,07,25,11.80
2007,08,24,07,26,11.80
2007,08,24,07,27,11.80
2007,08,24,07,28,11.80
2007,08,24,07,29,11.80
2007,08,24,07,30,11.80
2007,08,24,07,31,11.80
2007,08,24,07,32,11.80
2007,08,24,07,33,11.80
2007,08,24,07,34,11.80
2007,08,24,07,35,11.80
2007,08,24,07,36,11.80
2007,08,24,07,37,11.80
2007,08,24,07,38,11.80
2007,08,24,07,39,11.80
2007,08,24,07,40,11.90
2007,08,24,07,41,11.90
2007,08,24,07,42,11.90
2007,08,24,07,43,11.90
2007,08,24,07,44,11.90
2007,08,24,07,45,11.90
2007,08,24,07,46,11.90
2007,08,24,07,47,12.00
2007,08,24,07,48,12.00
2007,08,24,07,49,12.00
2007,08,24,07,50,12.00
2007,08,24,07,51,12.10
2007,08,24,07,52,12.10
2007,08,24,07,53,12.10
2007,08,24,07,54,12.20
2007,08,24,07,55,12.20
2007,08,24,07,56,12.20
2007,08,24,07,57,12.30
2007,08,24,07,58,12.30
2007,08,24,07,59,12.30
2007,08,24,08,00,12.30
2007,08,24,08,01,12.30
2007,08,24,08,02,12.40
2007,08,24,08,03,12.40
2007,08,24,08,04,12.40
2007,08,24,08,05,12.50
2007,08,24,08,06,12.50
2007,08,24,08,07,12.50
2007,08,24,08,08,12.60
2007,08,24,08,09,12.60
2007,08,24,08,10,12.60
2007,08,24,08,11,12.70
2007,08,24,08,12,12.70
2007,08,24,08,13,12.80
2007,08,24,08,14,12.80
2007,08,24,08,15,12.90
2007,08,24,08,16,12.90
2007,08,24,08,17,13.00
2007,08,24,08,18,13.10
2007,08,24,08,19,13.10
2007,08,24,08,20,13.20
2007,08,24,08,21,13.30
2007,08,24,08,22,13.30
2007,08,24,08,23,13.30
2007,08,24,08,24,13.40
2007,08,24,08,25,13.40
2007,08,24,08,26,13.50
2007,08,24,08,27,13.50
2007,08,24,08,28,13.50
2007,08,24,08,29,13.60
2007,08,24,08,30,13.70
2007,08,24,08,31,13.70
2007,08,24,08,32,13.80
2007,08,24,08,33,13.90
2007,08,24,08,34,13.90
2007,08,24,08,35,14.00
2007,08,24,08,36,14.10
2007,08,24,08,37,14.20
2007,08,24,08,38,14.20
2007,08,24,08,39,14.20
2007,08,24,08,40,14.30
2007,08,24,08,41,14.30
2007,08,24,08,42,14.40
2007,08,24,08,43,14.40
2007,08,24,08,44,14.50
2007,08,24,08,45,14.50
2007,08,24,08,46,14.60
2007,08,24,08,47,14.60
2007,08,24,08,48,14.70
2007,08,24,08,49,14.80
2007,08,24,08,50,14.80
2007,08,24,08,51,14.80
2007,08,24,08,52,14.90
2007,08,24,08,53,15.00
2007,08,24,08,54,15.00
2007,08,24,08,55,15.10
2007,08,24,08,56,15.10
2007,08,24,08,57,15.20
2007,08,24,08,58,15.20
2007,08,24,08,59,15.30
2007,08,24,09,00,15.30
2007,08,24,09,01,15.30
2007,08,24,09,02,15.40
2007,08,24,09,03,15.40
2007,08,24,09,04,15.50
2007,08,24,09,05,15.50
2007,08,24,09,06,15.50
2007,08,24,09,07,15.60
2007,08,24,09,08,15.60
2007,08,24,09,09,15.60
2007,08,24,09,10,15.70
2007,08,24,09,11,15.80
2007,08,24,09,12,15.80
2007,08,24,09,13,15.80
2007,08,24,09,14,15.90
2007,08,24,09,15,15.90
2007,08,24,09,16,16.10
2007,08,24,09,17,16.10
2007,08,24,09,18,16.10
2007,08,24,09,19,16.10
2007,08,24,09,20,16.20
2007,08,24,09,21,16.20
2007,08,24,09,22,16.30
2007,08,24,09,23,16.30
2007,08,24,09,24,16.30
2007,08,24,09,25,16.40
2007,08,24,09,26,16.40
2007,08,24,09,27,16.40
2007,08,24,09,28,16.40
2007,08,24,09,29,16.40
2007,08,24,09,30,16.50
2007,08,24,09,31,16.60
2007,08,24,09,32,16.60
2007,08,24,09,33,16.70
2007,08,24,09,34,16.70
2007,08,24,09,35,16.70
2007,08,24,09,36,16.80
2007,08,24,09,37,16.90
2007,08,24,09,38,16.90
2007,08,24,09,39,16.90
2007,08,24,09,40,17.00
2007,08,24,09,41,17.00
2007,08,24,09,42,17.10
2007,08,24,09,43,17.10
2007,08,24,09,44,17.20
2007,08,24,09,45,17.20
2007,08,24,09,46,17.30
2007,08,24,09,47,17.30
2007,08,24,09,48,17.30
2007,08,24,09,49,17.40
2007,08,24,09,50,17.40
2007,08,24,09,51,17.50
2007,08,24,09,52,17.50
2007,08,24,09,53,17.50
2007,08,24,09,54,17.60
2007,08,24,09,55,17.60
2007,08,24,09,56,17.70
2007,08,24,09,57,17.80
2007,08,24,09,58,17.90
2007,08,24,09,59,17.90
2007,08,24,10,00,18.10
2007,08,24,10,01,18.20
2007,08,24,10,02,18.20
2007,08,24,10,03,18.20
2007,08,24,10,04,18.30
2007,08,24,10,05,18.40
2007,08,24,10,06,18.40
2007,08,24,10,07,18.50
2007,08,24,10,08,18.50
2007,08,24,10,09,18.50
2007,08,24,10,10,18.60
2007,08,24,10,11,18.60
2007,08,24,10,12,18.60
2007,08,24,10,13,18.60
2007,08,24,10,14,18.60
2007,08,24,10,15,18.60
2007,08,24,10,16,18.60
2007,08,24,10,17,18.60
2007,08,24,10,18,18.60
2007,08,24,10,19,18.60
2007,08,24,10,20,18.60
2007,08,24,10,21,18.60
2007,08,24,10,22,18.60
2007,08,24,10,23,18.60
2007,08,24,10,24,18.60
2007,08,24,10,25,18.60
2007,08,24,10,26,18.60
2007,08,24,10,27,18.70
2007,08,24,10,28,18.70
2007,08,24,10,29,18.80
2007,08,24,10,30,18.90
2007,08,24,10,31,18.90
2007,08,24,10,32,18.90
2007,08,24,10,33,19.10
2007,08,24,10,34,19.10
2007,08,24,10,35,19.10
2007,08,24,10,36,19.10
2007,08,24,10,37,19.10
2007,08,24,10,38,19.10
2007,08,24,10,39,19.10
2007,08,24,10,40,19.10
2007,08,24,10,41,19.20
2007,08,24,10,42,19.20
2007,08,24,10,43,19.20
2007,08,24,10,44,19.20
2007,08,24,10,45,19.20
2007,08,24,10,46,19.30
2007,08,24,10,47,19.40
2007,08,24,10,48,19.40
2007,08,24,10,49,19.40
2007,08,24,10,50,19.50
2007,08,24,10,51,19.50
2007,08,24,10,52,19.50
2007,08,24,10,53,19.50
2007,08,24,10,54,19.60
2007,08,24,10,55,19.60
2007,08,24,10,56,19.60
2007,08,24,10,57,19.70
2007,08,24,10,58,19.70
2007,08,24,10,59,19.80
2007,08,24,11,00,19.80
2007,08,24,11,01,19.80
2007,08,24,11,02,19.80
2007,08,24,11,03,19.90
2007,08,24,11,04,19.90
2007,08,24,11,05,19.90
2007,08,24,11,06,19.90
2007,08,24,11,07,19.90
2007,08,24,11,08,19.90
2007,08,24,11,09,19.90
2007,08,24,11,10,20.10
2007,08,24,11,11,20.10
2007,08,24,11,12,20.10
2007,08,24,11,13,20.10
2007,08,24,11,14,20.20
2007,08,24,11,15,20.20
2007,08,24,11,16,20.20
2007,08,24,11,17,20.20
2007,08,24,11,18,20.20
2007,08,24,11,19,20.20
2007,08,24,11,20,20.20
2007,08,24,11,21,20.20
2007,08,24,11,22,20.20
2007,08,24,11,23,20.20
2007,08,24,11,24,20.20
2007,08,24,11,25,20.20
2007,08,24,11,26,20.20
2007,08,24,11,27,20.20
2007,08,24,11,28,20.20
2007,08,24,11,29,20.20
2007,08,24,11,30,20.20
2007,08,24,11,31,20.20
2007,08,24,11,32,20.20
2007,08,24,11,33,20.20
2007,08,24,11,34,20.20
2007,08,24,11,35,20.20
2007,08,24,11,36,20.20
2007,08,24,11,37,20.20
2007,08,24,11,38,20.20
2007,08,24,11,39,20.20
2007,08,24,11,40,20.20
2007,08,24,11,41,20.20
2007,08,24,11,42,20.20
2007,08,24,11,43,20.30
2007,08,24,11,44,20.40
2007,08,24,11,45,20.40
2007,08,24,11,46,20.50
2007,08,24,11,47,20.50
2007,08,24,11,48,20.50
2007,08,24,11,49,20.60
2007,08,24,11,50,20.60
2007,08,24,11,51,20.60
2007,08,24,11,52,20.70
2007,08,24,11,53,20.70
2007,08,24,11,54,20.70
2007,08,24,11,55,20.60
2007,08,24,11,56,20.60
2007,08,24,11,57,20.60
2007,08,24,11,58,20.60
2007,08,24,11,59,20.60
2007,08,24,12,00,20.70
2007,08,24,12,01,20.70
2007,08,24,12,02,20.70
2007,08,24,12,03,20.70
2007,08,24,12,04,20.70
2007,08,24,12,05,20.80
2007,08,24,12,06,20.80
2007,08,24,12,07,20.80
2007,08,24,12,08,20.80
2007,08,24,12,09,20.80
2007,08,24,12,10,20.80
2007,08,24,12,11,20.80
2007,08,24,12,12,20.90
2007,08,24,12,13,20.90
2007,08,24,12,14,20.90
2007,08,24,12,15,20.90
2007,08,24,12,16,20.90
2007,08,24,12,17,20.90
2007,08,24,12,18,20.90
2007,08,24,12,19,20.90
2007,08,24,12,20,20.90
2007,08,24,12,21,20.90
2007,08,24,12,22,21.00
2007,08,24,12,23,21.00
2007,08,24,12,24,21.00
2007,08,24,12,25,21.00
2007,08,24,12,26,21.00
2007,08,24,12,27,21.10
2007,08,24,12,28,21.10
2007,08,24,12,29,21.10
2007,08,24,12,30,21.20
2007,08,24,12,31,21.20
2007,08,24,12,32,21.20
2007,08,24,12,33,21.30
2007,08,24,12,34,21.30
2007,08,24,12,35,21.30
2007,08,24,12,36,21.40
2007,08,24,12,37,21.40
2007,08,24,12,38,21.40
2007,08,24,12,39,21.40
2007,08,24,12,40,21.40
2007,08,24,12,41,21.50
2007,08,24,12,42,21.60
2007,08,24,12,43,21.60
2007,08,24,12,44,21.60
2007,08,24,12,45,21.60
2007,08,24,12,46,21.70
2007,08,24,12,47,21.80
2007,08,24,12,48,21.80
2007,08,24,12,49,21.90
2007,08,24,12,50,21.90
2007,08,24,12,51,22.00
2007,08,24,12,52,22.00
2007,08,24,12,53,22.10
2007,08,24,12,54,22.10
2007,08,24,12,55,22.10
2007,08,24,12,56,22.20
2007,08,24,12,57,22.20
2007,08,24,12,58,22.30
2007,08,24,12,59,22.30
2007,08,24,13,00,22.40
2007,08,24,13,01,22.40
2007,08,24,13,02,22.40
2007,08,24,13,03,22.40
2007,08,24,13,04,22.40
2007,08,24,13,05,22.40
2007,08,24,13,06,22.40
2007,08,24,13,07,22.40
2007,08,24,13,08,22.40
2007,08,24,13,09,22.40
2007,08,24,13,10,22.40
2007,08,24,13,11,22.50
2007,08,24,13,12,22.50
2007,08,24,13,13,22.60
2007,08,24,13,14,22.70
2007,08,24,13,15,22.80
2007,08,24,13,16,22.90
2007,08,24,13,17,22.90
2007,08,24,13,18,22.90
2007,08,24,13,19,22.90
2007,08,24,13,20,22.90
2007,08,24,13,21,22.90
2007,08,24,13,22,22.80
2007,08,24,13,23,22.70
2007,08,24,13,24,22.60
2007,08,24,13,25,22.60
2007,08,24,13,26,22.60
2007,08,24,13,27,22.60
2007,08,24,13,28,22.60
2007,08,24,13,29,22.60
2007,08,24,13,30,22.60
2007,08,24,13,31,22.50
2007,08,24,13,32,22.60
2007,08,24,13,33,22.60
2007,08,24,13,34,22.60
2007,08,24,13,35,22.60
2007,08,24,13,36,22.70
2007,08,24,13,37,22.80
2007,08,24,13,38,22.80
2007,08,24,13,39,22.80
2007,08,24,13,40,22.80
2007,08,24,13,41,22.90
2007,08,24,13,42,22.90
2007,08,24,13,43,22.90
2007,08,24,13,44,22.90
2007,08,24,13,45,22.90
2007,08,24,13,46,22.90
2007,08,24,13,47,22.90
2007,08,24,13,48,22.90
2007,08,24,13,49,22.90
2007,08,24,13,50,22.90
2007,08,24,13,51,22.90
2007,08,24,13,52,22.90
2007,08,24,13,53,22.90
2007,08,24,13,54,23.00
2007,08,24,13,55,23.10
2007,08,24,13,56,23.20
2007,08,24,13,57,23.20
2007,08,24,13,58,23.20
2007,08,24,13,59,23.30
2007,08,24,14,00,23.30
2007,08,24,14,01,23.30
2007,08,24,14,02,23.30
2007,08,24,14,03,23.30
2007,08,24,14,04,23.30
2007,08,24,14,05,23.30
2007,08,24,14,06,23.30
2007,08,24,14,07,23.30
2007,08,24,14,08,23.30
2007,08,24,14,09,23.30
2007,08,24,14,10,23.30
2007,08,24,14,11,23.30
2007,08,24,14,12,23.30
2007,08,24,14,13,23.30
2007,08,24,14,14,23.30
2007,08,24,14,15,23.20
2007,08,24,14,16,23.20
2007,08,24,14,17,23.20
2007,08,24,14,18,23.20
2007,08,24,14,19,23.20
2007,08,24,14,20,23.20
2007,08,24,14,21,23.20
2007,08,24,14,22,23.20
2007,08,24,14,23,23.20
2007,08,24,14,24,23.30
2007,08,24,14,25,23.40
2007,08,24,14,26,23.50
2007,08,24,14,27,23.70
2007,08,24,14,28,23.70
2007,08,24,14,29,23.80
2007,08,24,14,30,23.90
2007,08,24,14,31,24.00
2007,08,24,14,32,24.10
2007,08,24,14,33,24.30
2007,08,24,14,34,24.40
2007,08,24,14,35,24.50
2007,08,24,14,36,24.50
2007,08,24,14,37,24.60
2007,08,24,14,38,24.70
2007,08,24,14,39,24.70
2007,08,24,14,40,24.70
2007,08,24,14,41,24.80
2007,08,24,14,42,24.80
2007,08,24,14,43,24.80
2007,08,24,14,44,24.80
2007,08,24,14,45,24.80
2007,08,24,14,46,24.90
2007,08,24,14,47,24.90
2007,08,24,14,48,24.90
2007,08,24,14,49,24.90
2007,08,24,14,50,24.90
2007,08,24,14,51,25.00
2007,08,24,14,52,25.10
2007,08,24,14,53,25.10
2007,08,24,14,54,25.10
2007,08,24,14,55,25.10
2007,08,24,14,56,25.00
2007,08,24,14,57,24.90
2007,08,24,14,58,24.90
2007,08,24,14,59,24.80
2007,08,24,15,00,24.70
2007,08,24,15,01,24.70
2007,08,24,15,02,24.80
2007,08,24,15,03,24.80
2007,08,24,15,04,24.80
2007,08,24,15,05,24.90
2007,08,24,15,06,24.90
2007,08,24,15,07,24.90
2007,08,24,15,08,24.90
2007,08,24,15,09,25.00
2007,08,24,15,10,25.00
2007,08,24,15,11,25.00
2007,08,24,15,12,24.90
2007,08,24,15,13,24.90
2007,08,24,15,14,24.80
2007,08,24,15,15,24.80
2007,08,24,15,16,24.80
2007,08,24,15,17,24.70
2007,08,24,15,18,24.70
2007,08,24,15,19,24.70
2007,08,24,15,20,24.70
2007,08,24,15,21,24.60
2007,08,24,15,22,24.60
2007,08,24,15,23,24.60
2007,08,24,15,24,24.60
2007,08,24,15,25,24.60
2007,08,24,15,26,24.60
2007,08,24,15,27,24.70
2007,08,24,15,28,24.70
2007,08,24,15,29,24.70
2007,08,24,15,30,24.60
2007,08,24,15,31,24.60
2007,08,24,15,32,24.70
2007,08,24,15,33,24.70
2007,08,24,15,34,24.80
2007,08,24,15,35,24.80
2007,08,24,15,36,24.80
2007,08,24,15,37,24.90
2007,08,24,15,38,24.90
2007,08,24,15,39,25.00
2007,08,24,15,40,25.00
2007,08,24,15,41,25.00
2007,08,24,15,42,24.90
2007,08,24,15,43,24.90
2007,08,24,15,44,24.90
2007,08,24,15,45,24.90
2007,08,24,15,46,24.90
2007,08,24,15,47,24.90
2007,08,24,15,48,24.90
2007,08,24,15,49,24.80
2007,08,24,15,50,24.80
2007,08,24,15,51,24.80
2007,08,24,15,52,24.80
2007,08,24,15,53,24.70
2007,08,24,15,54,24.70
2007,08,24,15,55,24.70
2007,08,24,15,56,24.70
2007,08,24,15,57,24.70
2007,08,24,15,58,24.70
2007,08,24,15,59,24.60
2007,08,24,16,00,24.60
2007,08,24,16,01,24.60
2007,08,24,16,02,24.70
2007,08,24,16,03,24.70
2007,08,24,16,04,24.70
2007,08,24,16,05,24.70
2007,08,24,16,06,24.70
2007,08,24,16,07,24.70
2007,08,24,16,08,24.70
2007,08,24,16,09,24.70
2007,08,24,16,10,24.70
2007,08,24,16,11,24.70
2007,08,24,16,12,24.70
2007,08,24,16,13,24.70
2007,08,24,16,14,24.70
2007,08,24,16,15,24.80
2007,08,24,16,16,24.80
2007,08,24,16,17,24.80
2007,08,24,16,18,24.80
2007,08,24,16,19,24.80
2007,08,24,16,20,24.80
2007,08,24,16,21,24.80
2007,08,24,16,22,24.80
2007,08,24,16,23,24.80
2007,08,24,16,24,24.80
2007,08,24,16,25,24.80
2007,08,24,16,26,24.80
2007,08,24,16,27,24.80
2007,08,24,16,28,24.80
2007,08,24,16,29,24.80
2007,08,24,16,30,24.80
2007,08,24,16,31,24.90
2007,08,24,16,32,24.90
2007,08,24,16,33,24.90
2007,08,24,16,34,24.90
2007,08,24,16,35,24.90
2007,08,24,16,36,24.90
2007,08,24,16,37,24.90
2007,08,24,16,38,24.90
2007,08,24,16,39,24.90
2007,08,24,16,40,24.90
2007,08,24,16,41,24.90
2007,08,24,16,42,24.80
2007,08,24,16,43,24.80
2007,08,24,16,44,24.80
2007,08,24,16,45,24.80
2007,08,24,16,46,24.80
2007,08,24,16,47,24.80
2007,08,24,16,48,24.80
2007,08,24,16,49,24.80
2007,08,24,16,50,24.80
2007,08,24,16,51,24.80
2007,08,24,16,52,24.80
2007,08,24,16,53,24.80
2007,08,24,16,54,24.80
2007,08,24,16,55,24.80
2007,08,24,16,56,24.80
2007,08,24,16,57,24.80
2007,08,24,16,58,24.80
2007,08,24,16,59,24.80
2007,08,24,17,00,24.70
2007,08,24,17,01,24.70
2007,08,24,17,02,24.70
2007,08,24,17,03,24.70
2007,08,24,17,04,24.70
2007,08,24,17,05,24.70
2007,08,24,17,06,24.70
2007,08,24,17,07,24.70
2007,08,24,17,08,24.70
2007,08,24,17,09,24.60
2007,08,24,17,10,24.60
2007,08,24,17,11,24.50
2007,08,24,17,12,24.50
2007,08,24,17,13,24.50
2007,08,24,17,14,24.40
2007,08,24,17,15,24.40
2007,08,24,17,16,24.40
2007,08,24,17,17,24.40
2007,08,24,17,18,24.40
2007,08,24,17,19,24.40